"Sample Date","Sample Time","Sample Value","Units","Flow Rate","Sample Interval","Number Channels","Micron Size 0","Counts/Channel 0","Micron Size 1","Counts/Channel 1","Micron Size 2","Counts/Channel 2","Micron Size 3","Counts/Channel 3","Micron Size 4","Counts/Channel 4","Micron Size 5","Counts/Channel 5","Micron Size 6","Counts/Channel 6","Micron Size 7","Counts/Channel 7","Micron Size 8","Counts/Channel 8","Micron Size 9","Counts/Channel 9","Micron Size 10","Counts/Channel 10","Micron Size 11","Counts/Channel 11","Micron Size 12","Counts/Channel 12","Micron Size 13","Counts/Channel 13","Micron Size 14","Counts/Channel 14","Micron Size 15","Counts/Channel 15","Micron Size 16","Counts/Channel 16","Micron Size 17","Counts/Channel 17","Micron Size 18","Counts/Channel 18","Micron Size 19","Counts/Channel 19","Micron Size 20","Counts/Channel 20","Micron Size 21","Counts/Channel 21","Micron Size 22","Counts/Channel 22","Micron Size 23","Counts/Channel 23","Micron Size 24","Counts/Channel 24","Micron Size 25","Counts/Channel 25","Micron Size 26","Counts/Channel 26","Micron Size 27","Counts/Channel 27","Micron Size 28","Counts/Channel 28","Micron Size 29","Counts/Channel 29","Micron Size 30","Counts/Channel 30","Micron Size 31","Counts/Channel 31"
"04/04/08","23:00:04",26344.000,"cc",28432.430,6.00,6,0.100,24063.000,0.200,1115.000,0.300,424.000,0.500,564.000,1.000,178.000,5.000,0
"04/04/08","23:00:10",26193.000,"cc",28278.334,6.00,6,0.100,23960.000,0.200,1064.000,0.300,433.000,0.500,529.000,1.000,207.000,5.000,0
"04/04/08","23:00:16",26481.000,"cc",28293.926,6.00,6,0.100,24141.000,0.200,1152.000,0.300,423.000,0.500,564.000,1.000,201.000,5.000,0
"04/04/08","23:00:22",26376.000,"cc",28332.498,6.00,6,0.100,23986.000,0.200,1129.000,0.300,463.000,0.500,590.000,1.000,208.000,5.000,0
"04/04/08","23:00:28",26814.000,"cc",28300.084,6.00,6,0.100,24367.000,0.200,1153.000,0.300,482.000,0.500,613.000,1.000,199.000,5.000,0
"04/04/08","23:00:34",26882.000,"cc",28340.057,6.00,6,0.100,24479.000,0.200,1153.000,0.300,462.000,0.500,579.000,1.000,209.000,5.000,0
"04/04/08","23:00:40",26781.000,"cc",28324.205,6.00,6,0.100,24339.000,0.200,1156.000,0.300,450.000,0.500,607.000,1.000,229.000,5.000,0
"04/04/08","23:00:46",27117.000,"cc",28324.586,6.00,6,0.100,24694.000,0.200,1184.000,0.300,481.000,0.500,556.000,1.000,202.000,5.000,0
"04/04/08","23:00:52",26147.000,"cc",28356.107,6.00,6,0.100,23917.000,0.200,1083.000,0.300,414.000,0.500,542.000,1.000,191.000,5.000,0
"04/04/08","23:00:58",26142.000,"cc",28280.066,6.00,6,0.100,23992.000,0.200,1055.000,0.300,394.000,0.500,511.000,1.000,190.000,5.000,0
"04/04/08","23:01:04",25951.000,"cc",28324.428,6.00,6,0.100,23811.000,0.200,1045.000,0.300,440.000,0.500,463.000,1.000,192.000,5.000,0
"04/04/08","23:01:10",26585.000,"cc",28186.256,6.00,6,0.100,24347.000,0.200,1069.000,0.300,454.000,0.500,529.000,1.000,186.000,5.000,0
"04/04/08","23:01:16",26004.000,"cc",28388.648,6.00,6,0.100,23837.000,0.200,1085.000,0.300,404.000,0.500,475.000,1.000,203.000,5.000,0
"04/04/08","23:01:22",25481.000,"cc",28310.440,6.00,6,0.100,23318.000,0.200,1087.000,0.300,398.000,0.500,502.000,1.000,176.000,5.000,0
"04/04/08","23:01:28",25877.000,"cc",28423.160,6.00,6,0.100,23636.000,0.200,1102.000,0.300,425.000,0.500,497.000,1.000,217.000,5.000,0
"04/04/08","23:01:34",25790.000,"cc",28319.432,6.00,6,0.100,23602.000,0.200,1111.000,0.300,412.000,0.500,484.000,1.000,181.000,5.000,0
"04/04/08","23:01:40",25789.000,"cc",28339.262,6.00,6,0.100,23614.000,0.200,1031.000,0.300,454.000,0.500,483.000,1.000,207.000,5.000,0
"04/04/08","23:01:46",25346.000,"cc",28259.111,6.00,6,0.100,23214.000,0.200,1035.000,0.300,416.000,0.500,493.000,1.000,188.000,5.000,0
"04/04/08","23:01:52",24759.000,"cc",28329.627,6.00,6,0.100,22656.000,0.200,1084.000,0.300,386.000,0.500,450.000,1.000,183.000,5.000,0
"04/04/08","23:01:58",24792.000,"cc",28223.236,6.00,6,0.100,22570.000,0.200,1078.000,0.300,437.000,0.500,518.000,1.000,189.000,5.000,0
"04/04/08","23:02:04",24486.000,"cc",28253.926,6.00,6,0.100,22317.000,0.200,1094.000,0.300,402.000,0.500,498.000,1.000,175.000,5.000,0
"04/04/08","23:02:10",24528.000,"cc",28236.195,6.00,6,0.100,22437.000,0.200,1027.000,0.300,407.000,0.500,472.000,1.000,185.000,5.000,0
"04/04/08","23:02:16",24900.000,"cc",28277.148,6.00,6,0.100,22721.000,0.200,1049.000,0.300,417.000,0.500,521.000,1.000,192.000,5.000,0
"04/04/08","23:02:22",23812.000,"cc",28344.447,6.00,6,0.100,21718.000,0.200,987.000,0.300,440.000,0.500,468.000,1.000,199.000,5.000,0
"04/04/08","23:02:28",24279.000,"cc",28379.516,6.00,6,0.100,22171.000,0.200,1024.000,0.300,405.000,0.500,508.000,1.000,171.000,5.000,0
"04/04/08","23:02:34",23475.000,"cc",28319.389,6.00,6,0.100,21427.000,0.200,1023.000,0.300,365.000,0.500,450.000,1.000,210.000,5.000,0
"04/04/08","23:02:40",23107.000,"cc",28274.223,6.00,6,0.100,21096.000,0.200,1036.000,0.300,357.000,0.500,450.000,1.000,168.000,5.000,0
"04/04/08","23:02:46",23622.000,"cc",28355.357,6.00,6,0.100,21510.000,0.200,1054.000,0.300,369.000,0.500,489.000,1.000,200.000,5.000,0
"04/04/08","23:02:52",23864.000,"cc",28315.795,6.00,6,0.100,21745.000,0.200,1038.000,0.300,403.000,0.500,519.000,1.000,159.000,5.000,0
"04/04/08","23:02:58",23658.000,"cc",28362.100,6.00,6,0.100,21623.000,0.200,1027.000,0.300,389.000,0.500,453.000,1.000,166.000,5.000,0
"04/04/08","23:03:04",23880.000,"cc",28345.604,6.00,6,0.100,21855.000,0.200,1020.000,0.300,373.000,0.500,454.000,1.000,178.000,5.000,0
"04/04/08","23:03:10",23704.000,"cc",28255.840,6.00,6,0.100,21689.000,0.200,983.000,0.300,388.000,0.500,453.000,1.000,191.000,5.000,0
"04/04/08","23:03:16",23229.000,"cc",28322.242,6.00,6,0.100,21300.000,0.200,1002.000,0.300,351.000,0.500,429.000,1.000,147.000,5.000,0
"04/04/08","23:03:22",23262.000,"cc",28376.639,6.00,6,0.100,21292.000,0.200,1001.000,0.300,365.000,0.500,426.000,1.000,178.000,5.000,0
"04/04/08","23:03:28",22424.000,"cc",28327.455,6.00,6,0.100,20570.000,0.200,945.000,0.300,329.000,0.500,420.000,1.000,160.000,5.000,0
"04/04/08","23:03:34",23151.000,"cc",28238.852,6.00,6,0.100,21220.000,0.200,970.000,0.300,391.000,0.500,399.000,1.000,171.000,5.000,0
"04/04/08","23:03:40",23679.000,"cc",28308.434,6.00,6,0.100,21592.000,0.200,1056.000,0.300,399.000,0.500,471.000,1.000,161.000,5.000,0
"04/04/08","23:03:46",23929.000,"cc",28272.875,6.00,6,0.100,21863.000,0.200,1020.000,0.300,395.000,0.500,472.000,1.000,179.000,5.000,0
"04/04/08","23:03:52",24229.000,"cc",28249.664,6.00,6,0.100,22037.000,0.200,1062.000,0.300,444.000,0.500,522.000,1.000,164.000,5.000,0
"04/04/08","23:03:58",24448.000,"cc",28280.174,6.00,6,0.100,22236.000,0.200,1101.000,0.300,440.000,0.500,497.000,1.000,174.000,5.000,0
"04/04/08","23:04:04",24899.000,"cc",28348.100,6.00,6,0.100,22580.000,0.200,1189.000,0.300,434.000,0.500,500.000,1.000,196.000,5.000,0
"04/04/08","23:04:10",25426.000,"cc",28378.555,6.00,6,0.100,23022.000,0.200,1185.000,0.300,456.000,0.500,577.000,1.000,186.000,5.000,0
"04/04/08","23:04:16",23713.000,"cc",28305.043,6.00,6,0.100,21535.000,0.200,1144.000,0.300,389.000,0.500,488.000,1.000,157.000,5.000,0
"04/04/08","23:04:22",23985.000,"cc",28295.332,6.00,6,0.100,21716.000,0.200,1177.000,0.300,435.000,0.500,492.000,1.000,165.000,5.000,0
"04/04/08","23:04:28",25573.000,"cc",28353.773,6.00,6,0.100,23054.000,0.200,1247.000,0.300,469.000,0.500,580.000,1.000,223.000,5.000,0
"04/04/08","23:04:34",25665.000,"cc",28340.281,6.00,6,0.100,23245.000,0.200,1233.000,0.300,452.000,0.500,550.000,1.000,185.000,5.000,0
"04/04/08","23:04:40",25092.000,"cc",28237.611,6.00,6,0.100,22732.000,0.200,1198.000,0.300,473.000,0.500,512.000,1.000,177.000,5.000,0
"04/04/08","23:04:46",25168.000,"cc",28296.475,6.00,6,0.100,22734.000,0.200,1181.000,0.300,488.000,0.500,570.000,1.000,195.000,5.000,0
"04/04/08","23:04:52",24688.000,"cc",28252.701,6.00,6,0.100,22593.000,0.200,1030.000,0.300,378.000,0.500,524.000,1.000,163.000,5.000,0
"04/04/08","23:04:58",24649.000,"cc",28307.861,6.00,6,0.100,22329.000,0.200,1154.000,0.300,436.000,0.500,557.000,1.000,173.000,5.000,0
"04/04/08","23:05:04",25121.000,"cc",28436.686,6.00,6,0.100,22620.000,0.200,1257.000,0.300,504.000,0.500,560.000,1.000,180.000,5.000,0
"04/04/08","23:05:10",24318.000,"cc",28326.586,6.00,6,0.100,22106.000,0.200,1103.000,0.300,434.000,0.500,508.000,1.000,167.000,5.000,0
"04/04/08","23:05:16",25123.000,"cc",28312.193,6.00,6,0.100,22596.000,0.200,1237.000,0.300,517.000,0.500,573.000,1.000,200.000,5.000,0
"04/04/08","23:05:22",25872.000,"cc",28276.668,6.00,6,0.100,22782.000,0.200,1488.000,0.300,714.000,0.500,669.000,1.000,219.000,5.000,0
"04/04/08","23:05:28",25430.000,"cc",28357.076,6.00,6,0.100,22799.000,0.200,1255.000,0.300,564.000,0.500,614.000,1.000,198.000,5.000,0
"04/04/08","23:05:34",26053.000,"cc",28337.369,6.00,6,0.100,23013.000,0.200,1463.000,0.300,665.000,0.500,690.000,1.000,222.000,5.000,0
"04/04/08","23:05:40",25436.000,"cc",28311.295,6.00,6,0.100,22847.000,0.200,1231.000,0.300,591.000,0.500,556.000,1.000,211.000,5.000,0
"04/04/08","23:05:46",26730.000,"cc",28306.648,6.00,6,0.100,23352.000,0.200,1560.000,0.300,765.000,0.500,793.000,1.000,260.000,5.000,0
"04/04/08","23:05:52",26644.000,"cc",28327.291,6.00,6,0.100,23150.000,0.200,1624.000,0.300,843.000,0.500,776.000,1.000,251.000,5.000,0
"04/04/08","23:05:58",26069.000,"cc",28311.014,6.00,6,0.100,23081.000,0.200,1374.000,0.300,676.000,0.500,687.000,1.000,251.000,5.000,0
"04/04/08","23:06:04",27863.000,"cc",28336.258,6.00,6,0.100,23933.000,0.200,1769.000,0.300,1011.000,0.500,887.000,1.000,263.000,5.000,0
"04/04/08","23:06:10",28317.000,"cc",28348.863,6.00,6,0.100,24164.000,0.200,1931.000,0.300,932.000,0.500,983.000,1.000,307.000,5.000,0
"04/04/08","23:06:16",28239.000,"cc",28367.285,6.00,6,0.100,24190.000,0.200,1870.000,0.300,952.000,0.500,905.000,1.000,322.000,5.000,0
"04/04/08","23:06:22",30126.000,"cc",28283.279,6.00,6,0.100,26113.000,0.200,1999.000,0.300,856.000,0.500,858.000,1.000,300.000,5.000,0
"04/04/08","23:06:28",33561.000,"cc",28264.496,6.00,6,0.100,28674.000,0.200,2483.000,0.300,1045.000,0.500,1011.000,1.000,348.000,5.000,0
"04/04/08","23:06:34",36727.000,"cc",28297.672,6.00,6,0.100,31411.000,0.200,2782.000,0.300,1095.000,0.500,1089.000,1.000,350.000,5.000,0
"04/04/08","23:06:40",37217.000,"cc",28299.432,6.00,6,0.100,31553.000,0.200,2856.000,0.300,1263.000,0.500,1158.000,1.000,387.000,5.000,0
"04/04/08","23:06:46",58937.000,"cc",28330.094,6.00,6,0.100,50319.000,0.200,5250.000,0.300,1579.000,0.500,1351.000,1.000,438.000,5.000,0
"04/04/08","23:06:52",77566.000,"cc",28334.578,6.00,6,0.100,66675.000,0.200,7356.000,0.300,1705.000,0.500,1375.000,1.000,455.000,5.000,0
"04/04/08","23:06:58",43849.000,"cc",28293.994,6.00,6,0.100,38261.000,0.200,3359.000,0.300,1008.000,0.500,904.000,1.000,317.000,5.000,0
"04/04/08","23:07:04",91883.000,"cc",28319.676,6.00,6,0.100,78577.000,0.200,9035.000,0.300,2036.000,0.500,1663.000,1.000,572.000,5.000,0
"04/04/08","23:07:10",131318.000,"cc",28287.621,6.00,6,0.100,114034.000,0.200,13262.000,0.300,2044.000,0.500,1469.000,1.000,509.000,5.000,0
"04/04/08","23:07:16",145156.000,"cc",28343.307,6.00,6,0.100,127680.000,0.200,14295.000,0.300,1684.000,0.500,1152.000,1.000,345.000,5.000,0
"04/04/08","23:07:22",145571.000,"cc",28335.602,6.00,6,0.100,127942.000,0.200,14519.000,0.300,1668.000,0.500,1086.000,1.000,356.000,5.000,0
"04/04/08","23:07:28",145117.000,"cc",28319.926,6.00,6,0.100,126706.000,0.200,14812.000,0.300,1877.000,0.500,1297.000,1.000,425.000,5.000,0
"04/04/08","23:07:34",141147.000,"cc",28264.000,6.00,6,0.100,121750.000,0.200,14745.000,0.300,2282.000,0.500,1744.000,1.000,626.000,5.000,0
"04/04/08","23:07:40",96464.000,"cc",28362.350,6.00,6,0.100,83652.000,0.200,9300.000,0.300,1682.000,0.500,1334.000,1.000,496.000,5.000,0
"04/04/08","23:07:46",118933.000,"cc",28322.137,6.00,6,0.100,103757.000,0.200,11774.000,0.300,1758.000,0.500,1250.000,1.000,394.000,5.000,0
"04/04/08","23:07:52",118919.000,"cc",28311.475,6.00,6,0.100,103552.000,0.200,11703.000,0.300,1867.000,0.500,1365.000,1.000,432.000,5.000,0
"04/04/08","23:07:58",109625.000,"cc",28293.004,6.00,6,0.100,95497.000,0.200,10453.000,0.300,1798.000,0.500,1389.000,1.000,488.000,5.000,0
"04/04/08","23:08:04",111831.000,"cc",28287.627,6.00,6,0.100,98246.000,0.200,10465.000,0.300,1599.000,0.500,1140.000,1.000,381.000,5.000,0
"04/04/08","23:08:10",92872.000,"cc",28298.389,6.00,6,0.100,82332.000,0.200,8331.000,0.300,1097.000,0.500,854.000,1.000,258.000,5.000,0
"04/04/08","23:08:16",123600.000,"cc",28311.088,6.00,6,0.100,109233.000,0.200,11777.000,0.300,1397.000,0.500,924.000,1.000,269.000,5.000,0
"04/04/08","23:08:22",142611.000,"cc",28363.758,6.00,6,0.100,125542.000,0.200,14001.000,0.300,1639.000,0.500,1052.000,1.000,377.000,5.000,0
"04/04/08","23:08:28",131522.000,"cc",28340.561,6.00,6,0.100,115432.000,0.200,13105.000,0.300,1586.000,0.500,1058.000,1.000,341.000,5.000,0
"04/04/08","23:08:34",120000.000,"cc",28326.824,6.00,6,0.100,106175.000,0.200,11313.000,0.300,1324.000,0.500,913.000,1.000,275.000,5.000,0
"04/04/08","23:08:40",210673.000,"cc",28344.137,6.00,6,0.100,185503.000,0.200,21851.000,0.300,1885.000,0.500,1078.000,1.000,356.000,5.000,0
"04/04/08","23:08:46",168978.000,"cc",28311.502,6.00,6,0.100,148415.000,0.200,17098.000,0.300,1836.000,0.500,1219.000,1.000,410.000,5.000,0
"04/04/08","23:08:52",114598.000,"cc",28279.512,6.00,6,0.100,100310.000,0.200,10810.000,0.300,1703.000,0.500,1366.000,1.000,409.000,5.000,0
"04/04/08","23:08:58",120235.000,"cc",28356.293,6.00,6,0.100,104342.000,0.200,11918.000,0.300,1971.000,0.500,1501.000,1.000,503.000,5.000,0
"04/04/08","23:09:04",74395.000,"cc",28354.389,6.00,6,0.100,65348.000,0.200,6530.000,0.300,1242.000,0.500,973.000,1.000,302.000,5.000,0
"04/04/08","23:09:10",90219.000,"cc",28290.961,6.00,6,0.100,79155.000,0.200,8099.000,0.300,1384.000,0.500,1203.000,1.000,378.000,5.000,0
"04/04/08","23:09:16",148547.000,"cc",28335.723,6.00,6,0.100,128955.000,0.200,15003.000,0.300,2212.000,0.500,1753.000,1.000,624.000,5.000,0
"04/04/08","23:09:22",130046.000,"cc",28309.578,6.00,6,0.100,113073.000,0.200,12711.000,0.300,2065.000,0.500,1624.000,1.000,573.000,5.000,0
"04/04/08","23:09:28",112157.000,"cc",28283.316,6.00,6,0.100,97829.000,0.200,10671.000,0.300,1776.000,0.500,1398.000,1.000,483.000,5.000,0
"04/04/08","23:09:34",111516.000,"cc",28269.285,6.00,6,0.100,96993.000,0.200,10616.000,0.300,1939.000,0.500,1453.000,1.000,515.000,5.000,0
"04/04/08","23:09:40",109707.000,"cc",28321.676,6.00,6,0.100,95350.000,0.200,10460.000,0.300,1859.000,0.500,1520.000,1.000,518.000,5.000,0
"04/04/08","23:09:46",89480.000,"cc",28317.637,6.00,6,0.100,77327.000,0.200,8355.000,0.300,1801.000,0.500,1503.000,1.000,494.000,5.000,0
"04/04/08","23:09:52",75417.000,"cc",28341.928,6.00,6,0.100,64992.000,0.200,6912.000,0.300,1609.000,0.500,1431.000,1.000,473.000,5.000,0
"04/04/08","23:09:58",82566.000,"cc",28332.422,6.00,6,0.100,71675.000,0.200,7532.000,0.300,1615.000,0.500,1307.000,1.000,437.000,5.000,0
"04/04/08","23:10:04",67506.000,"cc",28301.006,6.00,6,0.100,58327.000,0.200,5927.000,0.300,1552.000,0.500,1273.000,1.000,427.000,5.000,0
"04/04/08","23:10:10",104882.000,"cc",28292.207,6.00,6,0.100,89336.000,0.200,10507.000,0.300,2436.000,0.500,1947.000,1.000,656.000,5.000,0
"04/04/08","23:10:16",111766.000,"cc",28371.400,6.00,6,0.100,96331.000,0.200,11121.000,0.300,2139.000,0.500,1610.000,1.000,565.000,5.000,0
"04/04/08","23:10:22",139867.000,"cc",28333.229,6.00,6,0.100,122529.000,0.200,13899.000,0.300,1806.000,0.500,1213.000,1.000,420.000,5.000,0
"04/04/08","23:10:28",129945.000,"cc",28305.633,6.00,6,0.100,114592.000,0.200,12543.000,0.300,1530.000,0.500,956.000,1.000,324.000,5.000,0
"04/04/08","23:10:34",145696.000,"cc",28269.557,6.00,6,0.100,128657.000,0.200,14431.000,0.300,1443.000,0.500,879.000,1.000,286.000,5.000,0
"04/04/08","23:10:40",124186.000,"cc",28333.375,6.00,6,0.100,109411.000,0.200,12010.000,0.300,1417.000,0.500,1015.000,1.000,333.000,5.000,0
"04/04/08","23:10:46",219066.000,"cc",28326.537,6.00,6,0.100,190570.000,0.200,24083.000,0.300,2550.000,0.500,1408.000,1.000,455.000,5.000,0
"04/04/08","23:10:52",110237.000,"cc",28293.895,6.00,6,0.100,97029.000,0.200,10484.000,0.300,1395.000,0.500,1001.000,1.000,328.000,5.000,0
"04/04/08","23:10:58",170887.000,"cc",28265.684,6.00,6,0.100,149802.000,0.200,17466.000,0.300,1970.000,0.500,1229.000,1.000,420.000,5.000,0
"04/04/08","23:11:04",118905.000,"cc",28390.414,6.00,6,0.100,104977.000,0.200,11086.000,0.300,1510.000,0.500,1021.000,1.000,311.000,5.000,0
"04/04/08","23:11:10",172101.000,"cc",28276.648,6.00,6,0.100,151919.000,0.200,17304.000,0.300,1624.000,0.500,930.000,1.000,324.000,5.000,0
"04/04/08","23:11:16",205111.000,"cc",28299.088,6.00,6,0.100,180057.000,0.200,21248.000,0.300,2150.000,0.500,1238.000,1.000,418.000,5.000,0
"04/04/08","23:11:22",155214.000,"cc",28247.840,6.00,6,0.100,136790.000,0.200,15337.000,0.300,1700.000,0.500,1062.000,1.000,325.000,5.000,0
"04/04/08","23:11:28",137913.000,"cc",28317.703,6.00,6,0.100,122211.000,0.200,13105.000,0.300,1421.000,0.500,860.000,1.000,316.000,5.000,0
"04/04/08","23:11:34",126375.000,"cc",28403.699,6.00,6,0.100,110807.000,0.200,12107.000,0.300,1797.000,0.500,1235.000,1.000,429.000,5.000,0
"04/04/08","23:11:40",85787.000,"cc",28288.641,6.00,6,0.100,75020.000,0.200,7793.000,0.300,1426.000,0.500,1114.000,1.000,434.000,5.000,0
"04/04/08","23:11:46",79000.000,"cc",28236.090,6.00,6,0.100,69216.000,0.200,7052.000,0.300,1285.000,0.500,1066.000,1.000,381.000,5.000,0
"04/04/08","23:11:52",102837.000,"cc",28274.750,6.00,6,0.100,88695.000,0.200,9779.000,0.300,2057.000,0.500,1739.000,1.000,567.000,5.000,0
"04/04/08","23:11:58",120146.000,"cc",28349.766,6.00,6,0.100,104203.000,0.200,11765.000,0.300,2076.000,0.500,1553.000,1.000,549.000,5.000,0
"04/04/08","23:12:04",133781.000,"cc",28380.006,6.00,6,0.100,115515.000,0.200,13431.000,0.300,2351.000,0.500,1876.000,1.000,608.000,5.000,0
"04/04/08","23:12:10",197673.000,"cc",28311.469,6.00,6,0.100,173908.000,0.200,19791.000,0.300,2170.000,0.500,1389.000,1.000,415.000,5.000,0
"04/04/08","23:12:16",187860.000,"cc",28328.609,6.00,6,0.100,164827.000,0.200,19232.000,0.300,2063.000,0.500,1298.000,1.000,440.000,5.000,0
"04/04/08","23:12:22",134568.000,"cc",28344.723,6.00,6,0.100,119161.000,0.200,12488.000,0.300,1576.000,0.500,999.000,1.000,344.000,5.000,0
"04/04/08","23:12:28",161966.000,"cc",28312.557,6.00,6,0.100,143387.000,0.200,15612.000,0.300,1586.000,0.500,1054.000,1.000,327.000,5.000,0
"04/04/08","23:12:34",94368.000,"cc",28347.686,6.00,6,0.100,84018.000,0.200,8073.000,0.300,1146.000,0.500,869.000,1.000,262.000,5.000,0
"04/04/08","23:12:40",177281.000,"cc",28285.727,6.00,6,0.100,155919.000,0.200,17434.000,0.300,2103.000,0.500,1368.000,1.000,457.000,5.000,0
"04/04/08","23:12:46",230819.000,"cc",28331.178,6.00,6,0.100,204588.000,0.200,23426.000,0.300,1690.000,0.500,822.000,1.000,293.000,5.000,0
"04/04/08","23:12:52",244070.000,"cc",28310.447,6.00,6,0.100,214822.000,0.200,25791.000,0.300,1992.000,0.500,1117.000,1.000,348.000,5.000,0
"04/04/08","23:12:58",189687.000,"cc",28314.854,6.00,6,0.100,168149.000,0.200,18706.000,0.300,1585.000,0.500,931.000,1.000,316.000,5.000,0
"04/04/08","23:13:04",186211.000,"cc",28280.824,6.00,6,0.100,165089.000,0.200,18311.000,0.300,1601.000,0.500,914.000,1.000,296.000,5.000,0
"04/04/08","23:13:10",190490.000,"cc",28320.027,6.00,6,0.100,167890.000,0.200,19192.000,0.300,1900.000,0.500,1133.000,1.000,375.000,5.000,0
"04/04/08","23:13:16",148913.000,"cc",28296.777,6.00,6,0.100,130856.000,0.200,14493.000,0.300,1838.000,0.500,1278.000,1.000,448.000,5.000,0
"04/04/08","23:13:22",106371.000,"cc",28325.201,6.00,6,0.100,93147.000,0.200,9769.000,0.300,1723.000,0.500,1298.000,1.000,434.000,5.000,0
"04/04/08","23:13:28",147179.000,"cc",28308.584,6.00,6,0.100,127935.000,0.200,14420.000,0.300,2396.000,0.500,1821.000,1.000,607.000,5.000,0
"04/04/08","23:13:34",118239.000,"cc",28282.389,6.00,6,0.100,102146.000,0.200,11182.000,0.300,2474.000,0.500,1827.000,1.000,610.000,5.000,0
"04/04/08","23:13:40",115723.000,"cc",28362.152,6.00,6,0.100,99249.000,0.200,11426.000,0.300,2473.000,0.500,1965.000,1.000,610.000,5.000,0
"04/04/08","23:13:46",76084.000,"cc",28308.434,6.00,6,0.100,66534.000,0.200,6540.000,0.300,1379.000,0.500,1190.000,1.000,441.000,5.000,0
"04/04/08","23:13:52",130271.000,"cc",28298.775,6.00,6,0.100,113459.000,0.200,12646.000,0.300,2046.000,0.500,1565.000,1.000,555.000,5.000,0
"04/04/08","23:13:58",110251.000,"cc",28319.441,6.00,6,0.100,96727.000,0.200,10300.000,0.300,1678.000,0.500,1173.000,1.000,373.000,5.000,0
"04/04/08","23:14:04",64783.000,"cc",28332.283,6.00,6,0.100,57367.000,0.200,5469.000,0.300,901.000,0.500,764.000,1.000,282.000,5.000,0
"04/04/08","23:14:10",92960.000,"cc",28332.363,6.00,6,0.100,82023.000,0.200,8369.000,0.300,1328.000,0.500,931.000,1.000,309.000,5.000,0
"04/04/08","23:14:16",91979.000,"cc",28311.822,6.00,6,0.100,81754.000,0.200,8203.000,0.300,1048.000,0.500,723.000,1.000,251.000,5.000,0
"04/04/08","23:14:22",133591.000,"cc",28334.789,6.00,6,0.100,117799.000,0.200,12752.000,0.300,1640.000,0.500,1068.000,1.000,332.000,5.000,0
"04/04/08","23:14:28",127804.000,"cc",28303.438,6.00,6,0.100,110675.000,0.200,12876.000,0.300,2138.000,0.500,1601.000,1.000,514.000,5.000,0
"04/04/08","23:14:34",191431.000,"cc",28314.135,6.00,6,0.100,164799.000,0.200,20674.000,0.300,3108.000,0.500,2114.000,1.000,736.000,5.000,0
"04/04/08","23:14:40",191812.000,"cc",28278.523,6.00,6,0.100,167029.000,0.200,20144.000,0.300,2510.000,0.500,1601.000,1.000,528.000,5.000,0
"04/04/08","23:14:46",156583.000,"cc",28307.559,6.00,6,0.100,137581.000,0.200,15429.000,0.300,1898.000,0.500,1243.000,1.000,432.000,5.000,0
"04/04/08","23:14:52",190650.000,"cc",28353.611,6.00,6,0.100,165933.000,0.200,19916.000,0.300,2567.000,0.500,1674.000,1.000,560.000,5.000,0
"04/04/08","23:14:58",158353.000,"cc",28329.049,6.00,6,0.100,137883.000,0.200,15987.000,0.300,2315.000,0.500,1670.000,1.000,498.000,5.000,0
"04/04/08","23:15:04",194274.000,"cc",28272.879,6.00,6,0.100,169965.000,0.200,19904.000,0.300,2335.000,0.500,1579.000,1.000,491.000,5.000,0
"04/04/08","23:15:10",132472.000,"cc",28310.670,6.00,6,0.100,116592.000,0.200,12408.000,0.300,1785.000,0.500,1245.000,1.000,442.000,5.000,0
"04/04/08","23:15:16",150010.000,"cc",28362.299,6.00,6,0.100,131489.000,0.200,14616.000,0.300,1974.000,0.500,1448.000,1.000,483.000,5.000,0
"04/04/08","23:15:22",97983.000,"cc",28285.986,6.00,6,0.100,85821.000,0.200,8865.000,0.300,1614.000,0.500,1277.000,1.000,406.000,5.000,0
"04/04/08","23:15:28",99432.000,"cc",28333.861,6.00,6,0.100,86635.000,0.200,9023.000,0.300,1809.000,0.500,1422.000,1.000,543.000,5.000,0
"04/04/08","23:15:34",84272.000,"cc",28301.648,6.00,6,0.100,73605.000,0.200,7364.000,0.300,1537.000,0.500,1309.000,1.000,457.000,5.000,0
"04/04/08","23:15:40",93202.000,"cc",28321.514,6.00,6,0.100,80205.000,0.200,8774.000,0.300,2029.000,0.500,1657.000,1.000,537.000,5.000,0
"04/04/08","23:15:46",101717.000,"cc",28264.818,6.00,6,0.100,88229.000,0.200,9516.000,0.300,1902.000,0.500,1576.000,1.000,494.000,5.000,0
"04/04/08","23:15:52",162078.000,"cc",28342.266,6.00,6,0.100,139834.000,0.200,16677.000,0.300,2736.000,0.500,2093.000,1.000,738.000,5.000,0
"04/04/08","23:15:58",119025.000,"cc",28310.059,6.00,6,0.100,103454.000,0.200,11474.000,0.300,2029.000,0.500,1547.000,1.000,521.000,5.000,0
"04/04/08","23:16:04",160197.000,"cc",28339.141,6.00,6,0.100,139191.000,0.200,16558.000,0.300,2278.000,0.500,1631.000,1.000,539.000,5.000,0
"04/04/08","23:16:10",180570.000,"cc",28344.508,6.00,6,0.100,157961.000,0.200,18401.000,0.300,2192.000,0.500,1494.000,1.000,522.000,5.000,0
"04/04/08","23:16:16",224964.000,"cc",28304.207,6.00,6,0.100,195535.000,0.200,24284.000,0.300,2697.000,0.500,1815.000,1.000,633.000,5.000,0
"04/04/08","23:16:22",269837.000,"cc",28287.377,6.00,6,0.100,232362.000,0.200,30987.000,0.300,3488.000,0.500,2245.000,1.000,755.000,5.000,0